This is the latest recevied weather packets stored in our database for station/object KC0RPY. If no packets are shown the sender has not sent any weather packets the latest 1 day(s).
| Time | Temp. | Humidity | Pressure | Rain* | Wind** | Luminosity | Snow |
|---|---|---|---|---|---|---|---|
| 1778001211 | 7.22° C | 98% | 1013.5 hPa | 0 mm | 0.45 m/s, 93° | 231 W/m² | - |
| 1778000907 | 7.22° C | 98% | 1013.5 hPa | 0 mm | 0.45 m/s, 99° | 154 W/m² | - |
| 1778000604 | 7.22° C | 98% | 1013.2 hPa | 0 mm | 1.34 m/s, 105° | 247 W/m² | - |
| 1778000299 | 7.22° C | 98% | 1012.8 hPa | 0 mm | 0.89 m/s, 98° | 169 W/m² | - |
| 1777999995 | 6.67° C | 98% | 1013.2 hPa | 0 mm | 1.34 m/s, 78° | 128 W/m² | - |
| 1777999691 | 7.22° C | 98% | 1013.5 hPa | 0 mm | 1.34 m/s, 95° | 81 W/m² | - |
| 1777999388 | 6.67° C | 98% | 1013.5 hPa | 0 mm | 0.89 m/s, 99° | 78 W/m² | - |
| 1777999086 | 7.22° C | 98% | 1012.8 hPa | 0 mm | 0.89 m/s, 96° | 79 W/m² | - |
| 1777998785 | 7.22° C | 98% | 1013.2 hPa | 0 mm | 1.34 m/s, 60° | 137 W/m² | - |
| 1777998483 | 7.22° C | 98% | 1013.2 hPa | 0 mm | 1.34 m/s, 86° | 95 W/m² | - |
| 1777998178 | 7.22° C | 98% | 1013.2 hPa | 0 mm | 0.89 m/s, 112° | 109 W/m² | - |
| 1777997876 | 7.22° C | 98% | 1013.2 hPa | 0 mm | 1.34 m/s, 80° | 103 W/m² | - |
| 1777997573 | 7.78° C | 98% | 1013.2 hPa | 0 mm | 0.45 m/s, 110° | 55 W/m² | - |
| 1777997270 | 7.78° C | 98% | 1013.5 hPa | 0 mm | 0.89 m/s, 119° | 23 W/m² | - |
| 1777996968 | 7.78° C | 98% | 1013.9 hPa | 0 mm | 0 m/s | 17 W/m² | - |
| 1777996664 | 7.78° C | 98% | 1013.9 hPa | 0 mm | 0.45 m/s, 117° | 19 W/m² | - |
| 1777996360 | 7.78° C | 98% | 1013.9 hPa | 0 mm | 0.89 m/s, 93° | 23 W/m² | - |
| 1777996057 | 7.78° C | 98% | 1013.9 hPa | 0 mm | 0.45 m/s, 116° | 55 W/m² | - |
| 1777995753 | 7.78° C | 98% | 1013.2 hPa | 0 mm | 0.45 m/s, 111° | 92 W/m² | - |
| 1777995449 | 7.78° C | 98% | 1013.2 hPa | 0 mm | 0.45 m/s, 115° | 94 W/m² | - |
| 1777995147 | 7.78° C | 98% | 1013.5 hPa | 0 mm | 0.45 m/s, 127° | 109 W/m² | - |
| 1777994844 | 7.78° C | 98% | 1013.2 hPa | 0 mm | 0 m/s | 93 W/m² | - |
| 1777994541 | 7.78° C | 98% | 1013.2 hPa | 0 mm | 0.45 m/s, 99° | 86 W/m² | - |
| 1777994235 | 7.22° C | 98% | 1013.2 hPa | 0 mm | 0.45 m/s, 83° | 66 W/m² | - |
| 1777993933 | 7.22° C | 98% | 1013.2 hPa | 0 mm | 0.89 m/s, 99° | 67 W/m² | - |
* Rain latest hour (hover to see other rain measurements)
** Current wind speed in m/s (hover to see current wind gust speed)